PIMOHWEATHER Station Historical Data
Daily Summary for July 18, 2020 Units:  Metric    English   Both
Daily Weekly Monthly Yearly
  High: Low: Average:
Temperature: 37.0 °C 27.0 °C 31.6 °C
Dew Point: 28.0 °C 24.0 °C 25.6 °C
Humidity: 89% 52% 72%
Wind Speed: 24km/h 0km/h 6.1km/h
Wind Gust: 28km/h - -
Wind- - SSE
Pressure: 1012.6 hPa 1008.4 hPa -
Precipitation: 0.00 mm    
 
 
Tabular Data for July 18, 2020
Time Temperature Dew Point Pressure Wind Wind Speed Wind Gust Humidity Rainfall Rate (Hourly) solar
00:04 29.0 °C 26.0 °C 1012.6 hPa NNW 10 km/h 16 km/h 84% 0.00 mm 0.00 W/m2
00:09 29.0 °C 26.0 °C 1012.6 hPa NNW 7 km/h 12 km/h 85% 0.00 mm 0.00 W/m2
00:14 29.0 °C 26.0 °C 1012.6 hPa NNW 4 km/h 8 km/h 85% 0.00 mm 0.00 W/m2
00:19 28.0 °C 26.0 °C 1012.5 hPa North 7 km/h 8 km/h 85% 0.00 mm 0.00 W/m2
00:24 28.0 °C 26.0 °C 1012.5 hPa North 5 km/h 8 km/h 86% 0.00 mm 0.00 W/m2
00:29 28.0 °C 26.0 °C 1012.5 hPa NW 10 km/h 12 km/h 86% 0.00 mm 0.00 W/m2
00:34 28.0 °C 26.0 °C 1012.4 hPa NW 9 km/h 12 km/h 85% 0.00 mm 0.00 W/m2
00:39 28.0 °C 26.0 °C 1012.4 hPa NW 9 km/h 12 km/h 86% 0.00 mm 0.00 W/m2
00:43 28.0 °C 26.0 °C 1012.5 hPa NW 8 km/h 12 km/h 87% 0.00 mm 0.00 W/m2
00:49 28.0 °C 25.0 °C 1012.4 hPa NW 10 km/h 12 km/h 86% 0.00 mm 0.00 W/m2
00:54 28.0 °C 26.0 °C 1012.4 hPa WNW 13 km/h 16 km/h 87% 0.00 mm 0.00 W/m2
00:59 28.0 °C 26.0 °C 1012.4 hPa NW 11 km/h 12 km/h 88% 0.00 mm 0.00 W/m2
01:04 28.0 °C 25.0 °C 1012.4 hPa NW 14 km/h 16 km/h 88% 0.00 mm 0.00 W/m2
01:09 28.0 °C 25.0 °C 1012.3 hPa WNW 5 km/h 8 km/h 87% 0.00 mm 0.00 W/m2
01:13 28.0 °C 25.0 °C 1012.2 hPa WNW 6 km/h 8 km/h 87% 0.00 mm 0.00 W/m2
01:19 27.0 °C 25.0 °C 1011.9 hPa Calm     88% 0.00 mm 0.00 W/m2
01:23 27.0 °C 25.0 °C 1011.9 hPa NW 10 km/h 12 km/h 88% 0.00 mm 0.00 W/m2
01:29 27.0 °C 25.0 °C 1011.9 hPa NW 8 km/h 8 km/h 88% 0.00 mm 0.00 W/m2
01:34 27.0 °C 25.0 °C 1011.5 hPa NNW 3 km/h 8 km/h 87% 0.00 mm 0.00 W/m2
01:39 27.0 °C 25.0 °C 1011.7 hPa NNW 6 km/h 8 km/h 88% 0.00 mm 0.00 W/m2
01:44 27.0 °C 25.0 °C 1011.7 hPa NW 8 km/h 12 km/h 88% 0.00 mm 0.00 W/m2
01:49 27.0 °C 25.0 °C 1011.5 hPa NW 13 km/h 16 km/h 88% 0.00 mm 0.00 W/m2
01:54 27.0 °C 25.0 °C 1011.5 hPa North 8 km/h 8 km/h 88% 0.00 mm 0.00 W/m2
01:59 28.0 °C 25.0 °C 1011.3 hPa NNW 9 km/h 12 km/h 88% 0.00 mm 0.00 W/m2
02:02 28.0 °C 25.0 °C 1011.3 hPa North 5 km/h 8 km/h 88% 0.00 mm 0.00 W/m2
02:09 27.0 °C 25.0 °C 1011.2 hPa NW 3 km/h 4 km/h 88% 0.00 mm 0.00 W/m2
02:14 27.0 °C 25.0 °C 1011.3 hPa NNW 4 km/h 8 km/h 88% 0.00 mm 0.00 W/m2
02:19 27.0 °C 25.0 °C 1011.1 hPa North 5 km/h 8 km/h 88% 0.00 mm 0.00 W/m2
02:23 27.0 °C 25.0 °C 1011.2 hPa NNE 9 km/h 12 km/h 87% 0.00 mm 0.00 W/m2
02:29 27.0 °C 25.0 °C 1011.2 hPa NNE 5 km/h 8 km/h 87% 0.00 mm 0.00 W/m2
02:34 27.0 °C 25.0 °C 1011.2 hPa NE 8 km/h 8 km/h 88% 0.00 mm 0.00 W/m2
02:39 27.0 °C 25.0 °C 1011.1 hPa NNE 8 km/h 12 km/h 89% 0.00 mm 0.00 W/m2
02:44 27.0 °C 25.0 °C 1011.2 hPa NNE 4 km/h 8 km/h 88% 0.00 mm 0.00 W/m2
02:49 27.0 °C 25.0 °C 1011.2 hPa North 5 km/h 8 km/h 88% 0.00 mm 0.00 W/m2
02:54 27.0 °C 25.0 °C 1011.3 hPa NNE 5 km/h 8 km/h 88% 0.00 mm 0.00 W/m2
02:59 27.0 °C 25.0 °C 1011.3 hPa NNE 4 km/h 4 km/h 88% 0.00 mm 0.00 W/m2
03:03 27.0 °C 25.0 °C 1011.4 hPa NNE 4 km/h 8 km/h 88% 0.00 mm 0.00 W/m2
03:09 27.0 °C 25.0 °C 1011.6 hPa Calm     88% 0.00 mm 0.00 W/m2
03:14 27.0 °C 25.0 °C 1011.5 hPa Calm     88% 0.00 mm 0.00 W/m2
03:19 27.0 °C 25.0 °C 1011.5 hPa Calm   4 km/h 88% 0.00 mm 0.00 W/m2
03:24 27.0 °C 25.0 °C 1011.2 hPa NE 3 km/h 4 km/h 88% 0.00 mm 0.00 W/m2
03:29 27.0 °C 25.0 °C 1011.5 hPa NNE 5 km/h 8 km/h 88% 0.00 mm 0.00 W/m2
03:34 27.0 °C 25.0 °C 1011.4 hPa Calm   4 km/h 88% 0.00 mm 0.00 W/m2
03:39 27.0 °C 25.0 °C 1011.5 hPa North 2 km/h 4 km/h 88% 0.00 mm 0.00 W/m2
03:42 27.0 °C 25.0 °C 1011.6 hPa NE 3 km/h 4 km/h 88% 0.00 mm 0.00 W/m2
03:49 27.0 °C 25.0 °C 1011.5 hPa Calm     88% 0.00 mm 0.00 W/m2
03:54 27.0 °C 25.0 °C 1011.5 hPa Calm     88% 0.00 mm 0.00 W/m2
03:59 27.0 °C 25.0 °C 1011.9 hPa WNW 1 km/h 4 km/h 88% 0.00 mm 0.00 W/m2
04:03 27.0 °C 25.0 °C 1011.9 hPa NW 3 km/h 4 km/h 88% 0.00 mm 0.00 W/m2
04:09 27.0 °C 25.0 °C 1011.5 hPa NW 2 km/h 4 km/h 88% 0.00 mm 0.00 W/m2
04:14 27.0 °C 25.0 °C 1011.5 hPa Calm     88% 0.00 mm 0.00 W/m2
04:19 27.0 °C 25.0 °C 1011.5 hPa Calm     88% 0.00 mm 0.00 W/m2
04:24 27.0 °C 25.0 °C 1011.4 hPa Calm     88% 0.00 mm 0.00 W/m2
04:29 27.0 °C 25.0 °C 1011.5 hPa Calm     88% 0.00 mm 0.00 W/m2
04:34 27.0 °C 25.0 °C 1011.5 hPa North 2 km/h 4 km/h 88% 0.00 mm 0.00 W/m2
04:39 27.0 °C 25.0 °C 1011.5 hPa NNE 4 km/h 4 km/h 87% 0.00 mm 0.00 W/m2
04:43 27.0 °C 25.0 °C 1011.2 hPa Calm     87% 0.00 mm 0.00 W/m2
04:49 27.0 °C 25.0 °C 1011.5 hPa Calm     87% 0.00 mm 0.00 W/m2
04:53 27.0 °C 25.0 °C 1011.4 hPa Calm     88% 0.00 mm 0.00 W/m2
04:59 27.0 °C 25.0 °C 1011.5 hPa Calm     88% 0.00 mm 0.00 W/m2
05:04 27.0 °C 25.0 °C 1011.3 hPa Calm     88% 0.00 mm 0.00 W/m2
05:09 27.0 °C 25.0 °C 1011.5 hPa Calm     88% 0.00 mm 0.00 W/m2
05:13 27.0 °C 25.0 °C 1011.5 hPa Calm   4 km/h 88% 0.00 mm 0.00 W/m2
05:39 27.0 °C 25.0 °C 1011.5 hPa Calm     88% 0.00 mm 4.89 W/m2
05:44 27.0 °C 25.0 °C 1011.5 hPa Calm     88% 0.00 mm 9.40 W/m2
05:49 27.0 °C 25.0 °C 1011.9 hPa Calm     87% 0.00 mm 17.54 W/m2
05:54 27.0 °C 25.0 °C 1011.9 hPa Calm     87% 0.00 mm 22.88 W/m2
05:59 27.0 °C 25.0 °C 1011.7 hPa Calm     87% 0.00 mm 27.20 W/m2
06:04 27.0 °C 25.0 °C 1011.6 hPa Calm     87% 0.00 mm 32.26 W/m2
06:09 27.0 °C 25.0 °C 1011.6 hPa Calm     87% 0.00 mm 36.90 W/m2
06:13 27.0 °C 25.0 °C 1011.6 hPa Calm     86% 0.00 mm 40.26 W/m2
06:19 28.0 °C 25.0 °C 1011.7 hPa Calm     86% 0.00 mm 46.27 W/m2
06:24 28.0 °C 25.0 °C 1011.7 hPa Calm     85% 0.00 mm 55.68 W/m2
06:29 28.0 °C 25.0 °C 1011.6 hPa Calm     85% 0.00 mm 169.85 W/m2
06:33 28.0 °C 25.0 °C 1011.5 hPa Calm     85% 0.00 mm 182.01 W/m2
06:38 29.0 °C 25.0 °C 1011.9 hPa Calm     84% 0.00 mm 199.84 W/m2
06:49 30.0 °C 26.0 °C 1011.7 hPa ESE 2 km/h 4 km/h 81% 0.00 mm 224.78 W/m2
06:54 30.0 °C 26.0 °C 1011.8 hPa East 1 km/h 4 km/h 80% 0.00 mm 247.85 W/m2
06:59 30.0 °C 26.0 °C 1011.9 hPa Calm   4 km/h 78% 0.00 mm 265.95 W/m2
07:02 31.0 °C 26.0 °C 1011.5 hPa NE 3 km/h 4 km/h 77% 0.00 mm 272.00 W/m2
07:09 30.0 °C 26.0 °C 1011.5 hPa SSE 1 km/h 4 km/h 77% 0.00 mm 286.34 W/m2
07:14 31.0 °C 26.0 °C 1011.5 hPa North 2 km/h 4 km/h 78% 0.00 mm 305.71 W/m2
07:19 31.0 °C 26.0 °C 1011.6 hPa North 3 km/h 4 km/h 77% 0.00 mm 311.71 W/m2
07:23 31.0 °C 26.0 °C 1011.6 hPa NNE 3 km/h 4 km/h 77% 0.00 mm 323.72 W/m2
07:29 31.0 °C 26.0 °C 1011.8 hPa SE 1 km/h 4 km/h 75% 0.00 mm 332.21 W/m2
07:34 31.0 °C 26.0 °C 1011.7 hPa SE 6 km/h 8 km/h 76% 0.00 mm 341.85 W/m2
07:39 31.0 °C 26.0 °C 1011.9 hPa SE 5 km/h 8 km/h 74% 0.00 mm 345.40 W/m2
07:44 32.0 °C 26.0 °C 1011.8 hPa SE 5 km/h 8 km/h 74% 0.00 mm 360.94 W/m2
07:48 32.0 °C 26.0 °C 1012.2 hPa SSE 10 km/h 12 km/h 72% 0.00 mm 365.34 W/m2
07:53 31.0 °C 26.0 °C 1012.2 hPa SSE 8 km/h 8 km/h 73% 0.00 mm 374.76 W/m2
07:59 32.0 °C 26.0 °C 1011.9 hPa SSE 4 km/h 4 km/h 73% 0.00 mm 393.18 W/m2
08:04 32.0 °C 26.0 °C 1011.9 hPa ESE 11 km/h 16 km/h 72% 0.00 mm 403.68 W/m2
08:09 33.0 °C 26.0 °C 1012.2 hPa ESE 3 km/h 4 km/h 70% 0.00 mm 410.53 W/m2
08:14 33.0 °C 26.0 °C 1011.9 hPa East 5 km/h 8 km/h 69% 0.00 mm 425.63 W/m2
08:19 33.0 °C 26.0 °C 1012.2 hPa SSE 15 km/h 16 km/h 71% 0.00 mm 427.85 W/m2
08:24 33.0 °C 26.0 °C 1012.1 hPa SSE 5 km/h 12 km/h 70% 0.00 mm 427.76 W/m2
08:29 33.0 °C 26.0 °C 1012.1 hPa SSE 10 km/h 12 km/h 69% 0.00 mm 435.32 W/m2
08:31 32.0 °C 26.0 °C 1012.1 hPa SSE 11 km/h 12 km/h 71% 0.00 mm 431.33 W/m2
08:39 33.0 °C 26.0 °C 1012.2 hPa ESE 6 km/h 12 km/h 68% 0.00 mm 422.84 W/m2
08:44 33.0 °C 26.0 °C 1012.2 hPa SSE 9 km/h 12 km/h 68% 0.00 mm 448.06 W/m2
08:49 33.0 °C 26.0 °C 1012.2 hPa SE 5 km/h 8 km/h 68% 0.00 mm 453.18 W/m2
08:54 33.0 °C 26.0 °C 1012.2 hPa ENE 6 km/h 8 km/h 66% 0.00 mm 454.25 W/m2
08:59 33.0 °C 26.0 °C 1011.5 hPa East 8 km/h 8 km/h 65% 0.00 mm 466.17 W/m2
09:04 33.0 °C 26.0 °C 1011.9 hPa ESE 4 km/h 8 km/h 66% 0.00 mm 478.75 W/m2
09:09 34.0 °C 26.0 °C 1011.8 hPa ENE 8 km/h 12 km/h 66% 0.00 mm 494.18 W/m2
09:14 34.0 °C 26.0 °C 1011.7 hPa East 11 km/h 12 km/h 65% 0.00 mm 491.59 W/m2
09:19 34.0 °C 27.0 °C 1011.5 hPa SSE 7 km/h 8 km/h 66% 0.00 mm 498.15 W/m2
09:23 34.0 °C 27.0 °C 1011.5 hPa SE 6 km/h 8 km/h 65% 0.00 mm 495.48 W/m2
09:29 34.0 °C 26.0 °C 1011.4 hPa ESE 10 km/h 12 km/h 66% 0.00 mm 506.91 W/m2
09:34 34.0 °C 26.0 °C 1011.5 hPa SSE 6 km/h 8 km/h 65% 0.00 mm 503.78 W/m2
09:39 34.0 °C 26.0 °C 1011.5 hPa SE 13 km/h 16 km/h 69% 0.00 mm 509.89 W/m2
09:44 34.0 °C 27.0 °C 1011.6 hPa SE 9 km/h 12 km/h 69% 0.00 mm 522.49 W/m2
09:49 34.0 °C 27.0 °C 1011.5 hPa ESE 21 km/h 24 km/h 69% 0.00 mm 547.40 W/m2
09:54 33.0 °C 26.0 °C 1011.5 hPa SE 15 km/h 20 km/h 68% 0.00 mm 551.95 W/m2
09:59 33.0 °C 26.0 °C 1011.5 hPa SE 13 km/h 16 km/h 69% 0.00 mm 568.15 W/m2
10:04 33.0 °C 27.0 °C 1011.5 hPa NW 5 km/h 8 km/h 68% 0.00 mm 592.35 W/m2
10:09 34.0 °C 27.0 °C 1011.3 hPa ENE 24 km/h 28 km/h 67% 0.00 mm 598.34 W/m2
10:11 34.0 °C 27.0 °C 1011.2 hPa ESE 7 km/h 8 km/h 65% 0.00 mm 605.58 W/m2
10:17 35.0 °C 27.0 °C 1011.2 hPa Calm     64% 0.00 mm 578.40 W/m2
10:23 35.0 °C 26.0 °C 1011.1 hPa East 11 km/h 16 km/h 60% 0.00 mm 592.15 W/m2
10:29 36.0 °C 26.0 °C 1011.2 hPa NNE 5 km/h 8 km/h 60% 0.00 mm 614.86 W/m2
10:34 36.0 °C 26.0 °C 1011.2 hPa East 13 km/h 16 km/h 59% 0.00 mm 623.22 W/m2
10:39 35.0 °C 26.0 °C 1011.1 hPa NE 12 km/h 16 km/h 60% 0.00 mm 629.64 W/m2
10:44 35.0 °C 26.0 °C 1011.2 hPa ENE 8 km/h 12 km/h 59% 0.00 mm 623.74 W/m2
10:49 36.0 °C 26.0 °C 1011.3 hPa ESE 9 km/h 12 km/h 57% 0.00 mm 616.28 W/m2
10:54 36.0 °C 26.0 °C 1011.2 hPa SE 12 km/h 16 km/h 56% 0.00 mm 626.75 W/m2
10:59 36.0 °C 26.0 °C 1011.2 hPa NE 24 km/h 28 km/h 56% 0.00 mm 631.57 W/m2
11:03 36.0 °C 26.0 °C 1011.2 hPa NNE 10 km/h 12 km/h 56% 0.00 mm 633.79 W/m2
11:09 36.0 °C 25.0 °C 1011.2 hPa SE 15 km/h 20 km/h 54% 0.00 mm 643.97 W/m2
11:14 37.0 °C 26.0 °C 1011.0 hPa East 9 km/h 12 km/h 55% 0.00 mm 655.67 W/m2
11:19 37.0 °C 26.0 °C 1010.9 hPa NNE 8 km/h 12 km/h 54% 0.00 mm 653.37 W/m2
11:24 37.0 °C 25.0 °C 1010.8 hPa NNE 6 km/h 12 km/h 53% 0.00 mm 657.50 W/m2
11:29 37.0 °C 26.0 °C 1010.8 hPa East 11 km/h 16 km/h 53% 0.00 mm 673.70 W/m2
11:34 37.0 °C 26.0 °C 1010.6 hPa ESE 10 km/h 12 km/h 53% 0.00 mm 672.09 W/m2
11:39 37.0 °C 26.0 °C 1010.5 hPa NE 19 km/h 20 km/h 53% 0.00 mm 692.34 W/m2
11:44 37.0 °C 26.0 °C 1010.5 hPa NW 10 km/h 16 km/h 53% 0.00 mm 701.47 W/m2
11:49 37.0 °C 26.0 °C 1010.5 hPa SW 5 km/h 8 km/h 53% 0.00 mm 729.68 W/m2
11:51 37.0 °C 27.0 °C 1010.5 hPa NE 6 km/h 12 km/h 57% 0.00 mm 717.84 W/m2
11:59 36.0 °C 28.0 °C 1010.3 hPa SSW 13 km/h 16 km/h 69% 0.00 mm 716.54 W/m2
12:02 34.0 °C 27.0 °C 1010.1 hPa WNW 7 km/h 8 km/h 69% 0.00 mm 635.51 W/m2
12:09 35.0 °C 28.0 °C 1010.2 hPa WNW 9 km/h 12 km/h 67% 0.00 mm 657.16 W/m2
12:14 35.0 °C 28.0 °C 1010.1 hPa WSW 10 km/h 16 km/h 66% 0.00 mm 705.24 W/m2
12:18 36.0 °C 28.0 °C 1009.8 hPa West 14 km/h 20 km/h 66% 0.00 mm 442.80 W/m2
12:24 35.0 °C 28.0 °C 1009.9 hPa NW 19 km/h 20 km/h 68% 0.00 mm 671.72 W/m2
12:29 34.0 °C 28.0 °C 1009.8 hPa WNW 18 km/h 24 km/h 68% 0.00 mm 656.89 W/m2
12:34 35.0 °C 28.0 °C 1009.8 hPa WNW 16 km/h 24 km/h 68% 0.00 mm 695.13 W/m2
12:39 34.0 °C 28.0 °C 1009.8 hPa NW 18 km/h 20 km/h 70% 0.00 mm 690.12 W/m2
12:43 34.0 °C 28.0 °C 1009.4 hPa WNW 21 km/h 24 km/h 69% 0.00 mm 423.77 W/m2
12:49 34.0 °C 27.0 °C 1009.4 hPa NW 11 km/h 16 km/h 68% 0.00 mm 636.88 W/m2
12:54 35.0 °C 28.0 °C 1009.1 hPa West 5 km/h 8 km/h 67% 0.00 mm 659.36 W/m2
12:59 35.0 °C 28.0 °C 1009.3 hPa SSW 12 km/h 12 km/h 68% 0.00 mm 229.42 W/m2
13:04 34.0 °C 28.0 °C 1009.4 hPa West 6 km/h 8 km/h 68% 0.00 mm 682.93 W/m2
13:09 35.0 °C 28.0 °C 1009.3 hPa South 9 km/h 12 km/h 68% 0.00 mm 685.18 W/m2
13:14 36.0 °C 28.0 °C 1009.1 hPa SW 8 km/h 12 km/h 65% 0.00 mm 702.40 W/m2
13:19 36.0 °C 28.0 °C 1009.1 hPa WSW 10 km/h 12 km/h 66% 0.00 mm 680.18 W/m2
13:24 35.0 °C 28.0 °C 1009.1 hPa SW 8 km/h 12 km/h 66% 0.00 mm 198.72 W/m2
13:29 35.0 °C 27.0 °C 1009.0 hPa SSW 8 km/h 12 km/h 67% 0.00 mm 190.20 W/m2
13:31 34.0 °C 27.0 °C 1008.9 hPa SSW 7 km/h 8 km/h 68% 0.00 mm 182.79 W/m2
13:39 34.0 °C 27.0 °C 1009.0 hPa SW 3 km/h 4 km/h 68% 0.00 mm 455.82 W/m2
13:43 34.0 °C 27.0 °C 1008.8 hPa South 6 km/h 8 km/h 67% 0.00 mm 211.71 W/m2
13:49 34.0 °C 27.0 °C 1008.8 hPa WNW 5 km/h 8 km/h 67% 0.00 mm 215.14 W/m2
13:54 35.0 °C 27.0 °C 1008.9 hPa SSW 6 km/h 12 km/h 66% 0.00 mm 248.70 W/m2
13:59 36.0 °C 28.0 °C 1008.8 hPa SW 6 km/h 12 km/h 65% 0.00 mm 684.64 W/m2
14:04 36.0 °C 28.0 °C 1008.8 hPa SSW 11 km/h 20 km/h 64% 0.00 mm 703.89 W/m2
14:06 36.0 °C 28.0 °C 1008.8 hPa SSW 6 km/h 12 km/h 65% 0.00 mm 656.50 W/m2
14:14 35.0 °C 27.0 °C 1008.8 hPa WNW 5 km/h 8 km/h 65% 0.00 mm 212.18 W/m2
14:19 35.0 °C 27.0 °C 1008.8 hPa West 9 km/h 12 km/h 66% 0.00 mm 223.41 W/m2
14:23 35.0 °C 27.0 °C 1008.9 hPa SSE 8 km/h 12 km/h 65% 0.00 mm 425.51 W/m2
14:29 34.0 °C 27.0 °C 1008.7 hPa WNW 12 km/h 12 km/h 66% 0.00 mm 211.93 W/m2
14:33 34.0 °C 27.0 °C 1008.8 hPa NW 9 km/h 12 km/h 67% 0.00 mm 251.52 W/m2
14:38 35.0 °C 27.0 °C 1008.4 hPa WSW 4 km/h 8 km/h 65% 0.00 mm 659.14 W/m2
14:44 36.0 °C 27.0 °C 1008.6 hPa West 6 km/h 12 km/h 62% 0.00 mm 694.50 W/m2
14:49 36.0 °C 28.0 °C 1008.7 hPa West 12 km/h 20 km/h 63% 0.00 mm 633.82 W/m2
14:54 36.0 °C 28.0 °C 1008.8 hPa WNW 16 km/h 20 km/h 63% 0.00 mm 646.20 W/m2
14:59 37.0 °C 27.0 °C 1008.4 hPa WNW 5 km/h 8 km/h 60% 0.00 mm 639.64 W/m2
15:04 37.0 °C 28.0 °C 1008.8 hPa West 15 km/h 20 km/h 61% 0.00 mm 597.80 W/m2
15:09 37.0 °C 28.0 °C 1008.4 hPa West 10 km/h 16 km/h 62% 0.00 mm 594.38 W/m2
15:11 36.0 °C 28.0 °C 1008.5 hPa West 5 km/h 8 km/h 64% 0.00 mm 447.45 W/m2
15:19 34.0 °C 27.0 °C 1008.8 hPa NW 19 km/h 24 km/h 67% 0.00 mm 152.50 W/m2
15:23 35.0 °C 27.0 °C 1008.4 hPa SW 5 km/h 8 km/h 65% 0.00 mm 173.66 W/m2
15:29 35.0 °C 27.0 °C 1008.6 hPa NW 7 km/h 8 km/h 64% 0.00 mm 478.11 W/m2
15:34 35.0 °C 27.0 °C 1008.7 hPa WNW 9 km/h 12 km/h 64% 0.00 mm 327.20 W/m2
15:39 35.0 °C 27.0 °C 1008.7 hPa WNW 10 km/h 16 km/h 64% 0.00 mm 466.27 W/m2
15:44 35.0 °C 27.0 °C 1008.7 hPa NNE 5 km/h 8 km/h 64% 0.00 mm 178.68 W/m2
15:49 35.0 °C 27.0 °C 1008.6 hPa NNE 3 km/h 4 km/h 63% 0.00 mm 246.26 W/m2
15:54 35.0 °C 27.0 °C 1008.8 hPa NNE 6 km/h 8 km/h 64% 0.00 mm 140.36 W/m2
15:59 35.0 °C 26.0 °C 1008.7 hPa North 8 km/h 12 km/h 60% 0.00 mm 136.03 W/m2
16:01 35.0 °C 25.0 °C 1008.7 hPa ESE 5 km/h 8 km/h 55% 0.00 mm 254.31 W/m2
16:09 36.0 °C 25.0 °C 1008.8 hPa ENE 6 km/h 12 km/h 53% 0.00 mm 416.21 W/m2
16:14 37.0 °C 25.0 °C 1008.8 hPa NNE 3 km/h 4 km/h 52% 0.00 mm 375.57 W/m2
16:18 37.0 °C 25.0 °C 1008.8 hPa ENE 5 km/h 8 km/h 52% 0.00 mm 346.92 W/m2
16:24 37.0 °C 25.0 °C 1008.8 hPa East 7 km/h 12 km/h 52% 0.00 mm 306.33 W/m2
16:29 36.0 °C 25.0 °C 1009.1 hPa East 8 km/h 16 km/h 52% 0.00 mm 383.96 W/m2
16:34 36.0 °C 25.0 °C 1008.8 hPa NE 12 km/h 16 km/h 53% 0.00 mm 357.58 W/m2
16:39 36.0 °C 25.0 °C 1008.9 hPa NW 11 km/h 16 km/h 53% 0.00 mm 348.36 W/m2
16:44 36.0 °C 25.0 °C 1008.9 hPa ESE 10 km/h 16 km/h 54% 0.00 mm 324.33 W/m2
16:49 36.0 °C 25.0 °C 1009.1 hPa NE 7 km/h 12 km/h 53% 0.00 mm 302.46 W/m2
16:51 36.0 °C 25.0 °C 1009.1 hPa SE 5 km/h 8 km/h 53% 0.00 mm 306.52 W/m2
16:59 36.0 °C 25.0 °C 1008.9 hPa East 10 km/h 12 km/h 54% 0.00 mm 260.08 W/m2
17:03 36.0 °C 25.0 °C 1009.0 hPa NE 8 km/h 12 km/h 55% 0.00 mm 205.64 W/m2
17:09 35.0 °C 25.0 °C 1009.0 hPa ENE 5 km/h 8 km/h 54% 0.00 mm 200.65 W/m2
17:14 35.0 °C 25.0 °C 1009.1 hPa ESE 6 km/h 8 km/h 54% 0.00 mm 188.69 W/m2
17:19 35.0 °C 25.0 °C 1009.3 hPa South 5 km/h 12 km/h 54% 0.00 mm 201.04 W/m2
17:24 35.0 °C 25.0 °C 1009.2 hPa NE 6 km/h 8 km/h 55% 0.00 mm 200.92 W/m2
17:29 35.0 °C 25.0 °C 1009.4 hPa ENE 6 km/h 8 km/h 55% 0.00 mm 169.90 W/m2
17:34 35.0 °C 25.0 °C 1009.5 hPa ENE 10 km/h 16 km/h 55% 0.00 mm 171.41 W/m2
17:39 35.0 °C 24.0 °C 1009.5 hPa ESE 9 km/h 16 km/h 56% 0.00 mm 77.02 W/m2
17:43 34.0 °C 24.0 °C 1009.4 hPa NE 1 km/h 4 km/h 56% 0.00 mm 62.74 W/m2
17:49 34.0 °C 25.0 °C 1009.4 hPa ESE 6 km/h 12 km/h 58% 0.00 mm 53.25 W/m2
17:54 34.0 °C 24.0 °C 1009.5 hPa South 3 km/h 4 km/h 58% 0.00 mm 45.28 W/m2
17:59 34.0 °C 24.0 °C 1009.6 hPa SSE 5 km/h 8 km/h 58% 0.00 mm 40.29 W/m2
18:04 34.0 °C 25.0 °C 1009.6 hPa ESE 4 km/h 8 km/h 60% 0.00 mm 34.74 W/m2
18:09 34.0 °C 25.0 °C 1009.6 hPa ENE 5 km/h 8 km/h 61% 0.00 mm 26.42 W/m2
18:14 33.0 °C 25.0 °C 1009.7 hPa SSW 5 km/h 8 km/h 61% 0.00 mm 20.14 W/m2
18:19 33.0 °C 25.0 °C 1009.7 hPa East 6 km/h 12 km/h 61% 0.00 mm 10.94 W/m2
18:24 33.0 °C 24.0 °C 1009.8 hPa ENE 8 km/h 12 km/h 60% 0.00 mm 5.62 W/m2
18:29 33.0 °C 24.0 °C 1010.0 hPa SE 6 km/h 12 km/h 60% 0.00 mm 1.93 W/m2
18:31 33.0 °C 24.0 °C 1010.0 hPa NE 4 km/h 8 km/h 61% 0.00 mm 0.00 W/m2
18:39 33.0 °C 24.0 °C 1009.9 hPa SSW 1 km/h 4 km/h 61% 0.00 mm 0.00 W/m2
18:44 33.0 °C 24.0 °C 1009.7 hPa SSE 4 km/h 8 km/h 62% 0.00 mm 0.00 W/m2
18:49 33.0 °C 24.0 °C 1010.0 hPa ENE 10 km/h 16 km/h 62% 0.00 mm 0.00 W/m2
18:52 32.0 °C 24.0 °C 1009.9 hPa WSW 4 km/h 8 km/h 62% 0.00 mm 0.00 W/m2
18:58 32.0 °C 24.0 °C 1010.2 hPa ENE 5 km/h 8 km/h 63% 0.00 mm 0.00 W/m2
19:04 32.0 °C 24.0 °C 1010.5 hPa NE 5 km/h 8 km/h 63% 0.00 mm 0.00 W/m2
19:09 32.0 °C 24.0 °C 1010.5 hPa SE 3 km/h 8 km/h 63% 0.00 mm 0.00 W/m2
19:14 32.0 °C 24.0 °C 1010.4 hPa NE 5 km/h 8 km/h 64% 0.00 mm 0.00 W/m2
19:19 32.0 °C 24.0 °C 1010.4 hPa SE 3 km/h 8 km/h 64% 0.00 mm 0.00 W/m2
19:23 32.0 °C 24.0 °C 1010.4 hPa SW 1 km/h 4 km/h 64% 0.00 mm 0.00 W/m2
19:29 32.0 °C 24.0 °C 1010.6 hPa Calm   4 km/h 64% 0.00 mm 0.00 W/m2
19:34 32.0 °C 24.0 °C 1010.8 hPa East 1 km/h 4 km/h 64% 0.00 mm 0.00 W/m2
19:39 32.0 °C 24.0 °C 1010.8 hPa NE 3 km/h 4 km/h 64% 0.00 mm 0.00 W/m2
19:44 32.0 °C 24.0 °C 1010.9 hPa ESE 1 km/h 4 km/h 64% 0.00 mm 0.00 W/m2
19:49 32.0 °C 24.0 °C 1010.8 hPa Calm   4 km/h 64% 0.00 mm 0.00 W/m2
19:54 32.0 °C 24.0 °C 1010.8 hPa East 3 km/h 4 km/h 64% 0.00 mm 0.00 W/m2
19:59 32.0 °C 24.0 °C 1010.8 hPa ESE 2 km/h 4 km/h 64% 0.00 mm 0.00 W/m2
20:04 32.0 °C 24.0 °C 1011.0 hPa SE 4 km/h 4 km/h 64% 0.00 mm 0.00 W/m2
20:09 31.0 °C 24.0 °C 1011.2 hPa ESE 5 km/h 8 km/h 64% 0.00 mm 0.00 W/m2
20:11 31.0 °C 24.0 °C 1010.8 hPa ESE 4 km/h 8 km/h 64% 0.00 mm 0.00 W/m2
20:19 31.0 °C 24.0 °C 1011.2 hPa NNE 3 km/h 4 km/h 65% 0.00 mm 0.00 W/m2
20:24 31.0 °C 24.0 °C 1011.2 hPa NE 3 km/h 4 km/h 66% 0.00 mm 0.00 W/m2
20:29 31.0 °C 24.0 °C 1011.1 hPa NNE 4 km/h 4 km/h 68% 0.00 mm 0.00 W/m2
20:34 31.0 °C 25.0 °C 1011.1 hPa North 9 km/h 12 km/h 71% 0.00 mm 0.00 W/m2
20:39 30.0 °C 25.0 °C 1011.1 hPa NNE 6 km/h 8 km/h 71% 0.00 mm 0.00 W/m2
20:44 30.0 °C 25.0 °C 1010.9 hPa East 1 km/h 4 km/h 72% 0.00 mm 0.00 W/m2
20:49 31.0 °C 25.0 °C 1011.0 hPa NE 5 km/h 8 km/h 71% 0.00 mm 0.00 W/m2
20:54 30.0 °C 25.0 °C 1011.2 hPa NNE 9 km/h 12 km/h 72% 0.00 mm 0.00 W/m2
20:59 30.0 °C 25.0 °C 1011.1 hPa North 8 km/h 8 km/h 73% 0.00 mm 0.00 W/m2
21:03 30.0 °C 25.0 °C 1011.2 hPa NNE 4 km/h 8 km/h 73% 0.00 mm 0.00 W/m2
21:07 30.0 °C 25.0 °C 1010.8 hPa Calm   4 km/h 73% 0.00 mm 0.00 W/m2
21:14 30.0 °C 25.0 °C 1010.9 hPa NNE 4 km/h 4 km/h 74% 0.00 mm 0.00 W/m2
21:19 30.0 °C 25.0 °C 1011.2 hPa North 7 km/h 8 km/h 75% 0.00 mm 0.00 W/m2
21:24 30.0 °C 25.0 °C 1011.4 hPa NNW 8 km/h 8 km/h 75% 0.00 mm 0.00 W/m2
21:29 30.0 °C 25.0 °C 1011.2 hPa North 7 km/h 8 km/h 75% 0.00 mm 0.00 W/m2
21:34 30.0 °C 25.0 °C 1011.2 hPa NNE 5 km/h 8 km/h 75% 0.00 mm 0.00 W/m2
21:39 30.0 °C 25.0 °C 1011.3 hPa NNE 7 km/h 8 km/h 75% 0.00 mm 0.00 W/m2
21:44 30.0 °C 25.0 °C 1011.5 hPa NNE 8 km/h 12 km/h 75% 0.00 mm 0.00 W/m2
21:49 30.0 °C 25.0 °C 1011.5 hPa North 9 km/h 12 km/h 75% 0.00 mm 0.00 W/m2
21:51 30.0 °C 25.0 °C 1011.5 hPa North 5 km/h 8 km/h 74% 0.00 mm 0.00 W/m2
21:59 30.0 °C 25.0 °C 1011.6 hPa Calm     74% 0.00 mm 0.00 W/m2
22:04 30.0 °C 25.0 °C 1011.6 hPa NE 3 km/h 4 km/h 73% 0.00 mm 0.00 W/m2
22:09 30.0 °C 25.0 °C 1011.9 hPa NE 1 km/h 4 km/h 74% 0.00 mm 0.00 W/m2
22:14 30.0 °C 25.0 °C 1011.9 hPa NNE 1 km/h 4 km/h 74% 0.00 mm 0.00 W/m2
22:19 30.0 °C 24.0 °C 1011.9 hPa NNE 5 km/h 8 km/h 73% 0.00 mm 0.00 W/m2
22:24 30.0 °C 25.0 °C 1011.9 hPa NNE 5 km/h 8 km/h 73% 0.00 mm 0.00 W/m2
22:29 30.0 °C 25.0 °C 1012.2 hPa North 10 km/h 12 km/h 75% 0.00 mm 0.00 W/m2
22:34 29.0 °C 25.0 °C 1012.2 hPa North 8 km/h 12 km/h 76% 0.00 mm 0.00 W/m2
22:39 29.0 °C 25.0 °C 1012.1 hPa North 6 km/h 8 km/h 76% 0.00 mm 0.00 W/m2
22:43 29.0 °C 24.0 °C 1012.1 hPa NNW 4 km/h 4 km/h 75% 0.00 mm 0.00 W/m2
22:49 29.0 °C 25.0 °C 1012.2 hPa Calm     75% 0.00 mm 0.00 W/m2
22:54 29.0 °C 24.0 °C 1012.1 hPa Calm     75% 0.00 mm 0.00 W/m2
22:59 29.0 °C 25.0 °C 1012.1 hPa Calm     75% 0.00 mm 0.00 W/m2
23:04 29.0 °C 25.0 °C 1012.2 hPa Calm     75% 0.00 mm 0.00 W/m2
23:09 29.0 °C 25.0 °C 1011.9 hPa Calm     75% 0.00 mm 0.00 W/m2
23:14 29.0 °C 25.0 °C 1012.0 hPa North 4 km/h 8 km/h 76% 0.00 mm 0.00 W/m2
23:19 29.0 °C 25.0 °C 1011.9 hPa North 5 km/h 8 km/h 76% 0.00 mm 0.00 W/m2
23:24 29.0 °C 25.0 °C 1011.9 hPa North 7 km/h 8 km/h 77% 0.00 mm 0.00 W/m2
23:29 29.0 °C 25.0 °C 1011.9 hPa North 5 km/h 8 km/h 77% 0.00 mm 0.00 W/m2
23:31 29.0 °C 24.0 °C 1011.9 hPa North 5 km/h 8 km/h 77% 0.00 mm 0.00 W/m2
23:39 29.0 °C 24.0 °C 1011.6 hPa North 3 km/h 4 km/h 77% 0.00 mm 0.00 W/m2
23:44 29.0 °C 24.0 °C 1011.4 hPa North 4 km/h 4 km/h 77% 0.00 mm 0.00 W/m2
23:49 29.0 °C 24.0 °C 1011.5 hPa North 7 km/h 8 km/h 76% 0.00 mm 0.00 W/m2
23:54 29.0 °C 24.0 °C 1011.4 hPa North 5 km/h 8 km/h 76% 0.00 mm 0.00 W/m2
23:59 29.0 °C 24.0 °C 1011.3 hPa North 3 km/h 4 km/h 76% 0.00 mm 0.00 W/m2
PIMOHWEATHER Philippines
Compliments of Weather Underground - 2 mb